Location: Unspecified
(0.0000°N, 0.0000°E)
Time: 21:19:22
(UTC+00:00)

CZ-3C DEB - Pass Details

Date: 06 March 2026
Orbit: 440 x 28021 km, 21.3° (Epoch: 10 April)

Event Time Altitude Azimuth Distance (km) Brightness Sun altitude
Rises 11:53:38 0° 263° (W) 4,278 ? 82.9°
Reaches altitude 10° 11:55:21 10° 267° (W) 3,811 ? 83.2°
Maximum altitude 12:06:10 66° 349° (NNW) 4,166 ? 84.3°
Enters shadow 19:05:33 13° 93° (E) 13,916 ? -13.5°
